CYYRBGBW

Guest
Details From CYYR - Goose Bay
To BGBW - Narsarsuaq
Flight Number -
Tags Generated
Created
Modified
Stats Distance 674 nm / 1,248 km
Max Altitude 0 ft / 0 m
Waypoints 3
Social Downloads 3
Likes 0
Share VATSIM

Download

Looking for another format? Having issues loading an existing format? Contact us
Advertisement - Login to hide

Notes

Generated

Route

CYYR NS BGBW

ID Type Via Altitude Latitude Longitude Leg Dist Tot Dist Heading (true) Name
O CYYR APT - 0 ft / 0 m 53.33389˚ -60.43639˚ - 0 nm - -
NS NDB - 0 ft / 0 m 60.90000˚ -46.01667˚ 651 nm 651 nm 40° / 52° NARSAQ NDB
O BGBW APT - 0 ft / 0 m 61.15435˚ -45.43692˚ 22 nm 673 nm 48° / 48° -

Altitude Profile

Advertisement - Login to hide

Weather


0- 5 10 15 20 25 30 35+ Temperature / ° C

Clouds and Precipitation
Forecast for 2018-05-21 12:00 UTC. Updated 39 minutes ago

Ground ~20,000 ft ~40,000 ft Winds

CYYR

Details ICAO CYYR (YYR)
Name Goose Bay
Region Canada
Timezone America/Goose_Bay (UTC-3.0)
Stats Elevation 160 ft / 49 m (AMSL)
Location 53.318820° -60.423890°
Runways 2
Magnetic Variation 20.870° W

METAR

CYYR 211100Z 11007KT 15SM FEW030 FEW048 BKN068 BKN260 M00/M04 A2965 RMK SC1SC2AC5CI1 SLP043

Decode

TAF

TAF CYYR 211130Z 2112/2212 VRB03KT P6SM FEW030 BKN070 FM211400 VRB03KT P6SM FEW020 BKN030 TEMPO 2114/2120 5SM -SHRASN BR OVC020 BECMG 2116/2118 06006KT FM212000 06008KT 6SM -RASN BR OVC020 TEMPO 2120/2203 3SM -SN BR OVC015 FM220300 VRB03KT P6SM OVC020 BECMG 2208/2210 29008KT RMK NXT FCST BY 211800Z

Decode

Departure Runways

ID Width Length Bearing (true) Bearing (mag) Surface Threshold Offset Overrun Length
08 209 ft / 64 m 11,055 ft / 3,369 m 54.70° 75.57° Asphalt 0 ft / 0 m 1,000 ft / 305 m
16 200 ft / 61 m 9,515 ft / 2,900 m 132.96° 153.83° Asphalt 0 ft / 0 m 0 ft / 0 m
26 209 ft / 64 m 11,055 ft / 3,369 m 234.73° 255.60° Asphalt 0 ft / 0 m 1,000 ft / 305 m
34 200 ft / 61 m 9,515 ft / 2,900 m 312.99° 333.86° Asphalt 0 ft / 0 m 500 ft / 152 m

BGBW

Details ICAO BGBW (UAK)
Name Narsarsuaq
Region Greenland
Timezone America/Godthab (UTC-2.0)
Stats Elevation 112 ft / 34 m (AMSL)
Location 61.160516° -45.425976°
Runways 1
Magnetic Variation 22.776° W

METAR

BGBW 211050Z 24003KT 9999 FEW110 BKN200 02/M06 Q0996

Decode

TAF

Not found

Destination Runways

ID Width Length Bearing (true) Bearing (mag) Surface Threshold Offset Overrun Length
07 148 ft / 45 m 5,921 ft / 1,805 m 40.57° 63.35° Concrete 0 ft / 0 m 0 ft / 0 m
25 148 ft / 45 m 5,921 ft / 1,805 m 220.58° 243.36° Concrete 0 ft / 0 m 279 ft / 85 m

Popular Alternatives